Location: Sabalos
(43.2860°N, 0.1414°E)
Time: 20:09:11
(UTC+00:00)

Meteor 2-12 Rocket - Pass Details

Date: 05 July 2020
Orbit: 936 x 957 km, 82.5° (Epoch: 14 August)

Event Time Altitude Azimuth Distance (km) Brightness Sun altitude
Exits shadow 23:37:25 53° 175° (S) 1,158 4.5 -23.8°
Maximum altitude 23:39:00 82° 97° (E) 965 4.4 -23.8°
Drops below altitude 10° 23:45:09 10° 10° (N) 2,690 7.8 -23.9°
Sets 23:47:40 0° 10° (N) 3,642 8.8 -23.9°
